When you browse on this site, cookies collect data to enhance your experience and personalize the content and advertising you see.
Visit our Privacy Policy to learn more. By continuing to use the site, you agree to this use of cookies and data.
  • In Belgium
  • List of Countries
  • For 7 days
  • Water Temperature
  • Satellite Maps
  • Weather Map
  • Weather Widgets
  • user-avatar
    Login

    Hourly Weather Yeghegnadzor

    Today, 23 March, Saturday

    Time Temperature Precipitation Wind Pressure Humidity
    00:00 +2°C° 0 mm 1 mps 652 mmHg 59%
    01:00 +1°C° 0 mm 1 mps 651 mmHg 59%
    02:00 +1°C° 0 mm 1 mps 651 mmHg 60%
    03:00 0°C° 0 mm 1 mps 651 mmHg 61%
    04:00 -3°C° 0 mm 2 mps 650 mmHg 61%
    05:00 -3°C° 0 mm 2 mps 650 mmHg 62%
    06:00 -3°C° 0 mm 2 mps 650 mmHg 62%
    07:00 -1°C° 0 mm 2 mps 650 mmHg 62%
    08:00 +2°C° 0 mm 2 mps 650 mmHg 63%
    09:00 +3°C° 0 mm 2 mps 651 mmHg 64%
    10:00 +4°C° 0 mm 2 mps 650 mmHg 67%
    11:00 +5°C° 0 mm 2 mps 650 mmHg 69%
    12:00 +5°C° 0 mm 3 mps 649 mmHg 71%
    13:00 +5°C° 0 mm 3 mps 649 mmHg 70%
    14:00 +5°C° 0 mm 3 mps 648 mmHg 68%
    15:00 +7°C° 0 mm 3 mps 648 mmHg 66%
    16:00 +5°C° 0.1 mm 3 mps 648 mmHg 66%
    17:00 +6°C° 0.1 mm 2 mps 647 mmHg 67%
    18:00 +5°C° 0.1 mm 2 mps 647 mmHg 67%
    19:00 +4°C° 0 mm 2 mps 647 mmHg 67%
    20:00 +2°C° 0 mm 3 mps 647 mmHg 67%
    21:00 +1°C° 0 mm 3 mps 647 mmHg 68%
    22:00 +1°C° 0 mm 3 mps 647 mmHg 68%
    23:00 +1°C° 0 mm 3 mps 647 mmHg 68%

    Tomorrow, 24 March, Sunday

    Time Temperature Precipitation Wind Pressure Humidity
    00:00 +1°C° 0 mm 3 mps 647 mmHg 68%
    01:00 +1°C° 0.2 mm 3 mps 647 mmHg 70%
    02:00 +2°C° 0.2 mm 2 mps 646 mmHg 72%
    03:00 +3°C° 0.2 mm 2 mps 646 mmHg 73%
    04:00 +1°C° 0.1 mm 3 mps 646 mmHg 73%
    05:00 +1°C° 0.1 mm 3 mps 646 mmHg 73%
    06:00 +1°C° 0.1 mm 3 mps 646 mmHg 73%
    07:00 +2°C° 0 mm 3 mps 646 mmHg 72%
    08:00 +4°C° 0 mm 3 mps 646 mmHg 70%
    09:00 +5°C° 0 mm 3 mps 646 mmHg 69%
    10:00 +7°C° 0 mm 3 mps 646 mmHg 66%
    11:00 +8°C° 0 mm 3 mps 646 mmHg 64%
    12:00 +9°C° 0 mm 3 mps 646 mmHg 62%
    13:00 +9°C° 0 mm 3 mps 645 mmHg 60%
    14:00 +10°C° 0 mm 3 mps 645 mmHg 58%
    15:00 +10°C° 0 mm 3 mps 645 mmHg 57%
    16:00 +9°C° 0.7 mm 3 mps 645 mmHg 62%
    17:00 +8°C° 0.7 mm 2 mps 645 mmHg 67%
    18:00 +7°C° 0.7 mm 2 mps 645 mmHg 73%
    19:00 +7°C° 0.6 mm 2 mps 645 mmHg 74%
    20:00 +6°C° 0.6 mm 2 mps 646 mmHg 76%
    21:00 +6°C° 0.6 mm 2 mps 646 mmHg 78%
    22:00 +5°C° 0.2 mm 2 mps 646 mmHg 76%
    23:00 +4°C° 0.2 mm 3 mps 646 mmHg 75%

    Day after tomorrow, 25 March, Monday

    Time Temperature Precipitation Wind Pressure Humidity
    00:00 +3°C° 0.2 mm 3 mps 646 mmHg 74%
    01:00 +3°C° 0.1 mm 3 mps 646 mmHg 74%
    02:00 +3°C° 0.1 mm 3 mps 645 mmHg 73%
    03:00 +3°C° 0.1 mm 3 mps 645 mmHg 73%
    04:00 +3°C° 0.1 mm 3 mps 645 mmHg 73%
    05:00 +3°C° 0.1 mm 3 mps 645 mmHg 73%
    06:00 +3°C° 0.1 mm 3 mps 645 mmHg 73%
    07:00 +4°C° 0 mm 3 mps 645 mmHg 72%
    08:00 +5°C° 0 mm 3 mps 645 mmHg 71%
    09:00 +7°C° 0 mm 3 mps 645 mmHg 69%
    10:00 +7°C° 0 mm 2 mps 645 mmHg 67%
    11:00 +8°C° 0 mm 2 mps 645 mmHg 65%
    12:00 +9°C° 0 mm 2 mps 645 mmHg 64%
    13:00 +9°C° 0.2 mm 2 mps 645 mmHg 64%
    14:00 +8°C° 0.2 mm 2 mps 645 mmHg 65%
    15:00 +9°C° 0.2 mm 1 mps 645 mmHg 66%
    16:00 +8°C° 0.4 mm 1 mps 645 mmHg 69%
    17:00 +8°C° 0.4 mm 1 mps 645 mmHg 72%
    18:00 +7°C° 0.4 mm 1 mps 646 mmHg 75%
    19:00 +6°C° 0.4 mm 1 mps 646 mmHg 76%
    20:00 +6°C° 0.4 mm 1 mps 647 mmHg 77%
    21:00 +6°C° 0.4 mm 1 mps 647 mmHg 78%
    22:00 +5°C° 0.4 mm 1 mps 647 mmHg 79%
    23:00 +5°C° 0.4 mm 1 mps 647 mmHg 80%

    26 March, Tuesday

    Time Temperature Precipitation Wind Pressure Humidity
    00:00 +5°C° 0.4 mm 1 mps 647 mmHg 80%
    01:00 +5°C° 0.3 mm 1 mps 648 mmHg 81%
    02:00 +5°C° 0.3 mm 1 mps 648 mmHg 81%
    03:00 +4°C° 0.3 mm 0 mps 648 mmHg 81%
    04:00 +4°C° 0.3 mm 0 mps 648 mmHg 82%
    05:00 +4°C° 0.3 mm 0 mps 648 mmHg 82%
    06:00 +3°C° 0.3 mm 0 mps 648 mmHg 83%
    07:00 +4°C° 0.1 mm 0 mps 649 mmHg 80%
    08:00 +5°C° 0.1 mm 0 mps 649 mmHg 77%
    09:00 +6°C° 0.1 mm 0 mps 650 mmHg 75%
    10:00 +8°C° 0 mm 1 mps 649 mmHg 73%
    11:00 +8°C° 0 mm 1 mps 649 mmHg 71%
    12:00 +9°C° 0 mm 1 mps 649 mmHg 69%
    13:00 +9°C° 0.2 mm 1 mps 649 mmHg 68%
    14:00 +8°C° 0.2 mm 2 mps 649 mmHg 68%
    15:00 +9°C° 0.2 mm 2 mps 648 mmHg 67%
    16:00 +9°C° 0.1 mm 1 mps 648 mmHg 68%
    17:00 +9°C° 0.1 mm 1 mps 648 mmHg 69%
    18:00 +8°C° 0.1 mm 1 mps 648 mmHg 69%
    19:00 +8°C° 0 mm 1 mps 648 mmHg 71%
    20:00 +7°C° 0 mm 1 mps 648 mmHg 72%
    21:00 +5°C° 0 mm 2 mps 649 mmHg 74%
    22:00 +5°C° 0 mm 2 mps 648 mmHg 74%
    23:00 +5°C° 0 mm 1 mps 648 mmHg 75%

    27 March, Wednesday

    Time Temperature Precipitation Wind Pressure Humidity
    00:00 +4°C° 0 mm 1 mps 648 mmHg 75%
    01:00 +4°C° 0 mm 1 mps 648 mmHg 76%
    02:00 +4°C° 0 mm 1 mps 648 mmHg 77%
    03:00 +3°C° 0 mm 0 mps 647 mmHg 78%
    04:00 +2°C° 0 mm 0 mps 648 mmHg 79%
    05:00 +2°C° 0 mm 0 mps 648 mmHg 80%
    06:00 +3°C° 0 mm 1 mps 648 mmHg 81%
    07:00 +4°C° 0.1 mm 1 mps 648 mmHg 78%
    08:00 +6°C° 0.1 mm 1 mps 648 mmHg 75%
    09:00 +6°C° 0.1 mm 2 mps 648 mmHg 72%
    10:00 +6°C° 0.1 mm 2 mps 648 mmHg 70%
    11:00 +7°C° 0.1 mm 2 mps 648 mmHg 69%
    12:00 +8°C° 0.1 mm 2 mps 648 mmHg 67%
    13:00 +8°C° 0.1 mm 2 mps 648 mmHg 65%
    14:00 +8°C° 0.1 mm 2 mps 648 mmHg 63%
    15:00 +9°C° 0.1 mm 2 mps 648 mmHg 62%
    16:00 +8°C° 0 mm 2 mps 648 mmHg 63%
    17:00 +9°C° 0 mm 1 mps 648 mmHg 64%
    18:00 +8°C° 0 mm 1 mps 648 mmHg 66%
    19:00 +7°C° 0 mm 1 mps 649 mmHg 68%
    20:00 +7°C° 0 mm 1 mps 649 mmHg 70%
    21:00 +6°C° 0 mm 1 mps 650 mmHg 72%
    22:00 +6°C° 0 mm 1 mps 649 mmHg 73%
    23:00 +5°C° 0 mm 1 mps 649 mmHg 73%

    28 March, Thursday

    Time Temperature Precipitation Wind Pressure Humidity
    00:00 +5°C° 0 mm 1 mps 649 mmHg 74%
    01:00 +5°C° 0.1 mm 1 mps 649 mmHg 74%
    02:00 +5°C° 0.1 mm 1 mps 649 mmHg 75%
    03:00 +5°C° 0.1 mm 1 mps 650 mmHg 76%
    04:00 +5°C° 0.3 mm 1 mps 650 mmHg 76%
    05:00 +5°C° 0.3 mm 1 mps 650 mmHg 77%
    06:00 +5°C° 0.3 mm 1 mps 650 mmHg 78%
    07:00 +6°C° 0.4 mm 1 mps 650 mmHg 77%
    08:00 +7°C° 0.4 mm 1 mps 651 mmHg 76%
    09:00 +7°C° 0.4 mm 1 mps 651 mmHg 75%
    10:00 +7°C° 0.3 mm 2 mps 651 mmHg 74%
    11:00 +7°C° 0.3 mm 2 mps 650 mmHg 72%
    12:00 +8°C° 0.3 mm 2 mps 650 mmHg 71%
    13:00 +8°C° 0.4 mm 2 mps 650 mmHg 70%
    14:00 +8°C° 0.4 mm 2 mps 650 mmHg 70%
    15:00 +8°C° 0.4 mm 2 mps 650 mmHg 69%
    16:00 +7°C° 0.4 mm 2 mps 650 mmHg 70%
    17:00 +7°C° 0.4 mm 2 mps 650 mmHg 72%
    18:00 +6°C° 0.4 mm 2 mps 650 mmHg 73%
    19:00 +6°C° 0.3 mm 2 mps 650 mmHg 75%
    20:00 +5°C° 0.3 mm 2 mps 651 mmHg 76%
    21:00 +5°C° 0.3 mm 2 mps 651 mmHg 77%
    22:00 +5°C° 0.1 mm 1 mps 651 mmHg 77%
    23:00 +5°C° 0.1 mm 1 mps 651 mmHg 77%
    Show more